Content
SEND FEEDBACK

Daily
Averages
Monthly
Summary
United States of America

ASATDAS, GUAM


Home > North America > United States > Guam
Elevation: 612 feet     Latitude: 13 35N     Longitude: 144 56E

WEATHER
 
SELECT A DAY
Number of Records: 208,919;   Date Range: 1/1/95 - 7/23/14
 
SHARE

PRINT THIS DATA

[ ← Previous Day ]
WEATHER ALMANAC - OCTOBER 25, 2013
[ Next Day → ]
[ °C ]   °F
Weather ElementAverageHighLow
Temperature81.6 °F86 °F (10:54 am)78.1 °F (1:54 am)
Dewpoint77 °F79 °F (10:54 am)75.9 °F (1:54 am)
Humidity86.2 %94 % (6:54 am)74 % (11:54 am)
Barometer29.80 in29.87 in (9:54 pm)29.73 in (1:54 am)
Wind Speed3.3 mph10.4 mph (12:54 pm)
Weather ElementAverage
Visibility10 mi
Wind DirectionESE (118.8 °)

Weather ElementTotal
Precipitation---
Cooling Degree Days17.1 (Base 65)
Growing Degree Days32.1 (Base 50)
Averaged from 25 records on October 25, 2013
WEATHER CONDITIONS BREAKOUT
WIND DIRECTION BREAKOUT
WEATHER BY HOUR - OCTOBER 25, 2013
[ °C ]   °F
Local TimeTemperatureDewpointHumidityBarometerVisibilityWind DirectionWind SpeedGust SpeedPrecipitationEventsConditions
1:54 AM78.1 °F75.9 °F93 %29.73 in10.0 miCalmClear
2:54 AM79.0 °F75.9 °F90 %29.73 in10.0 miCalmMostly Cloudy
3:54 AM78.1 °F75.9 °F93 %29.73 in10.0 miCalmClear
4:54 AM78.1 °F75.9 °F93 %29.74 in10.0 miCalmClear
5:54 AM78.1 °F75.9 °F93 %29.76 in10.0 miCalmClear
6:54 AM79.0 °F77.0 °F94 %29.79 in10.0 miCalmPartly Cloudy
7:20 AM80.6 °F78.8 °F94 %29.82 in10.0 miCalmMostly Cloudy
7:30 AM80.6 °F78.8 °F94 %29.83 in10.0 miCalmPartly Cloudy
7:54 AM81.0 °F78.1 °F91 %29.82 in10.0 miCalmClear
8:54 AM84.0 °F77.0 °F79 %29.83 in10.0 miWSW (250°)6.9 mphPartly Cloudy
9:54 AM82.9 °F77.0 °F82 %29.83 in10.0 miWest (280°)8.1 mphPartly Cloudy
10:54 AM86.0 °F79.0 °F79 %29.82 in10.0 miWNW (290°)6.9 mphScattered Clouds
11:54 AM86.0 °F77.0 °F74 %29.80 in10.0 miWest (280°)8.1 mphPartly Cloudy
12:54 PM86.0 °F78.1 °F77 %29.78 in10.0 miNW (310°)10.4 mphPartly Cloudy
1:54 PM86.0 °F78.1 °F77 %29.77 in10.0 miWNW (300°)8.1 mphPartly Cloudy
2:54 PM86.0 °F77.0 °F74 %29.76 in10.0 miWNW (290°)8.1 mphScattered Clouds
3:54 PM84.9 °F77.0 °F77 %29.76 in10.0 miWNW (290°)8.1 mphPartly Cloudy
4:54 PM82.9 °F75.9 °F79 %29.78 in10.0 miWest (280°)8.1 mphPartly Cloudy
5:54 PM81.0 °F75.9 °F85 %29.80 in10.0 miWNW (290°)4.6 mphPartly Cloudy
6:54 PM81.0 °F77.0 °F88 %29.81 in10.0 miCalmScattered Clouds
7:54 PM80.1 °F77.0 °F90 %29.83 in10.0 miCalmPartly Cloudy
8:54 PM81.0 °F77.0 °F88 %29.86 in10.0 miCalmPartly Cloudy
9:54 PM80.1 °F77.0 °F90 %29.87 in10.0 miESE (110°)4.6 mphPartly Cloudy
10:54 PM80.1 °F77.0 °F90 %29.86 in10.0 miCalmPartly Cloudy
11:54 PM79.0 °F75.9 °F90 %29.85 in10.0 miCalmClear
Hourly data recorded from PGUM, located miles away from Asatdas, Guam







STORIES FROM OUR PARTNERS